GW2677 Weather Reports


Display with metric or nautical units.
time (UTC)temp
F
wind
direction
speed
MPH
gust
MPH
rain 1hr
in
rain 24hr
in
rain mn
in
humidity
%
barometer
mb
20260510005753 55 207 0.0 0.0 0.00 0.19 0.19 92 1011.7
20260510005249 55 207 0.0 0.0 0.00 0.19 0.19 92 1011.7
20260510004748 55 207 0.0 0.0 0.00 0.19 0.19 91 1011.7
20260510004245 55 207 0.0 0.0 0.00 0.19 0.19 90 1012.1
20260510003742 56 207 0.0 0.0 0.00 0.19 0.19 88 1011.9
20260510003239 57 207 0.0 0.0 0.00 0.19 0.19 88 1011.7
20260510002737 57 207 0.0 0.0 0.00 0.19 0.19 86 1011.6
20260510002235 57 207 0.0 0.0 0.00 0.19 0.19 85 1011.6
20260510001731 58 207 0.0 0.0 0.00 0.19 0.19 84 1011.6
20260510001230 58 206 0.0 0.0 0.00 0.19 0.19 83 1011.5
20260510000726 59 206 0.0 0.0 0.00 0.19 0.19 82 1011.2
20260510000226 60 206 0.0 0.0 0.00 0.19 0.19 80 1011.4
20260509235720 60 206 0.0 0.0 0.00 0.19 0.19 79 1011.6
20260509235216 61 206 0.0 0.0 0.00 0.19 0.19 78 1011.4
20260509234712 61 226 0.0 0.0 0.00 0.19 0.19 77 1011.5
20260509234209 62 229 0.0 1.0 0.00 0.19 0.19 76 1011.2
20260509233708 62 237 0.0 0.0 0.00 0.19 0.19 76 1011.4
20260509233205 62 232 0.0 0.0 0.00 0.19 0.19 76 1011.2
20260509232701 62 257 1.0 3.0 0.00 0.19 0.19 76 1011.1
20260509232158 62 240 1.0 2.0 0.00 0.19 0.19 76 1011.2
20260509231654 62 229 0.0 5.0 0.00 0.19 0.19 75 1011.2
20260509231152 62 246 3.0 3.0 0.00 0.19 0.19 74 1011.3
20260509230649 63 235 2.0 3.0 0.00 0.19 0.19 73 1011.2
20260509230146 64 249 1.0 3.0 0.00 0.19 0.19 73 1011.2
20260509225641 64 243 1.0 2.0 0.00 0.19 0.19 76 1011.4
20260509225137 63 217 0.0 3.0 0.00 0.19 0.19 74 1011.2
20260509224632 64 216 3.0 5.0 0.00 0.19 0.19 73 1011.2
20260509224129 64 193 2.0 2.0 0.00 0.19 0.19 74 1011.2
20260509223627 64 238 2.0 3.0 0.00 0.19 0.19 74 1011.2
20260509223124 63 244 0.0 3.0 0.00 0.19 0.19 73 1011.3
20260509222620 63 250 3.0 3.0 0.00 0.19 0.19 73 1011.3
20260509222116 63 244 2.0 2.0 0.00 0.19 0.19 74 1011.2
20260509221612 64 247 2.0 2.0 0.00 0.19 0.19 73 1011.0
20260509221108 64 153 4.0 5.0 0.00 0.19 0.19 72 1011.2
20260509220604 63 251 0.0 1.0 0.00 0.19 0.19 75 1011.2
20260509215556 62 235 3.0 5.0 0.00 0.19 0.19 76 1011.6
20260509215054 63 240 2.0 3.0 0.00 0.19 0.19 74 1011.5
20260509214551 62 237 3.0 3.0 0.00 0.19 0.19 76 1011.4
20260509214048 62 193 2.0 3.0 0.00 0.19 0.19 75 1011.5
20260509213544 63 224 0.0 3.0 0.00 0.19 0.19 74 1011.5
20260509213041 62 224 1.0 2.0 0.00 0.19 0.19 75 1011.6
20260509212537 63 131 3.0 3.0 0.00 0.19 0.19 74 1011.5
20260509212035 62 278 1.0 3.0 0.00 0.19 0.19 76 1011.7
20260509211530 61 249 0.0 1.0 0.00 0.19 0.19 77 1011.8
20260509211027 60 281 1.0 1.0 0.00 0.19 0.19 79 1012.2
20260509210524 60 278 0.0 1.0 0.00 0.19 0.19 80 1012.2
20260509210020 60 315 2.0 2.0 0.00 0.19 0.19 80 1012.2
20260509205515 60 291 2.0 2.0 0.00 0.19 0.19 80 1011.9
20260509205010 60 297 3.0 5.0 0.00 0.19 0.19 80 1012.3
20260509204507 60 277 1.0 2.0 0.00 0.19 0.19 80 1012.2
20260509204003 60 279 1.0 2.0 0.00 0.19 0.19 79 1011.9
20260509203459 61 304 1.0 1.0 0.00 0.19 0.19 78 1012.1
20260509202957 60 262 0.0 1.0 0.00 0.19 0.19 78 1011.8
20260509202453 60 240 0.0 1.0 0.00 0.19 0.19 79 1011.7
20260509201948 60 193 1.0 2.0 0.00 0.19 0.19 79 1011.8
20260509201443 60 291 0.0 0.0 0.00 0.19 0.19 80 1011.9
20260509200940 60 292 0.0 0.0 0.00 0.19 0.19 80 1011.9
20260509200440 59 287 0.0 0.0 0.00 0.19 0.19 80 1012.2
20260509195937 60 288 0.0 1.0 0.00 0.19 0.19 80 1012.3
20260509195433 60 278 1.0 2.0 0.00 0.19 0.19 80 1012.3
20260509194932 59 276 0.0 1.0 0.00 0.19 0.19 80 1012.2
20260509194428 60 254 2.0 2.0 0.00 0.19 0.19 79 1012.5
20260509193926 61 299 2.0 6.0 0.00 0.19 0.19 78 1012.4
20260509193425 61 162 1.0 2.0 0.00 0.19 0.19 77 1012.4
20260509192921 61 301 1.0 5.0 0.00 0.19 0.19 78 1012.5
20260509192418 61 257 2.0 3.0 0.00 0.19 0.19 80 1012.6
20260509191913 61 248 3.0 5.0 0.00 0.19 0.19 78 1012.5
20260509191409 60 174 2.0 2.0 0.00 0.19 0.19 82 1012.7
20260509190905 60 162 0.0 1.0 0.00 0.19 0.19 84 1013.0
20260509190402 59 220 2.0 3.0 0.00 0.19 0.19 84 1013.0
20260509185900 59 282 2.0 7.0 0.00 0.19 0.19 82 1013.1
20260509185356 59 248 7.0 8.0 0.00 0.19 0.19 83 1013.1
20260509184853 59 231 2.0 7.0 0.00 0.19 0.19 85 1013.0
20260509184350 60 232 2.0 3.0 0.00 0.19 0.19 86 1013.3
20260509183847 61 221 1.0 7.0 0.00 0.19 0.19 85 1013.1
20260509183342 58 246 1.0 3.0 0.00 0.19 0.19 91 1012.9
20260509182838 58 220 2.0 5.0 0.00 0.19 0.19 92 1013.2
20260509182336 58 213 0.0 3.0 0.00 0.19 0.19 94 1013.1
20260509181833 58 223 3.0 3.0 0.00 0.19 0.19 92 1013.0
20260509181330 56 107 4.0 5.0 0.00 0.19 0.19 93 1013.1
20260509180827 55 224 1.0 3.0 0.00 0.19 0.19 94 1013.4
20260509180323 56 228 2.0 2.0 0.00 0.19 0.19 94 1013.4
20260509175820 55 236 0.0 1.0 0.00 0.19 0.19 95 1013.3
20260509175316 55 245 0.0 2.0 0.00 0.19 0.19 95 1013.7
20260509174812 54 249 2.0 3.0 0.00 0.19 0.19 94 1013.5
20260509174307 55 238 2.0 3.0 0.00 0.19 0.19 94 1013.4
20260509173803 54 243 0.0 0.0 0.00 0.19 0.19 94 1013.3
20260509173254 55 230 2.0 2.0 0.00 0.19 0.19 94 1013.5
20260509172750 54 236 0.0 1.0 0.00 0.19 0.19 94 1013.5
20260509172247 54 278 1.0 1.0 0.00 0.19 0.19 94 1013.5
20260509171742 54 271 2.0 5.0 0.00 0.19 0.19 95 1013.5
20260509171239 54 242 2.0 3.0 0.00 0.19 0.19 95 1013.6
20260509170736 54 234 3.0 5.0 0.05 0.19 0.19 95 1013.8
20260509170232 54 244 3.0 5.0 0.05 0.19 0.19 95 1013.7
20260509165730 54 209 0.0 1.0 0.00 0.18 0.18 95 1013.7
20260509165225 54 226 1.0 1.0 0.00 0.18 0.18 95 1013.5
20260509164722 53 181 2.0 2.0 0.00 0.18 0.18 95 1013.7
20260509164217 53 231 1.0 2.0 0.00 0.18 0.18 95 1013.5
20260509163715 53 230 0.0 2.0 0.00 0.18 0.18 94 1013.6
20260509163212 53 170 0.0 1.0 0.00 0.18 0.18 95 1013.7
20260509162709 53 185 0.0 1.0 0.00 0.18 0.18 94 1013.5
20260509162204 53 237 0.0 0.0 0.07 0.18 0.18 95 1013.4
20260509161700 53 206 0.0 1.0 0.07 0.18 0.18 95 1013.4
20260509161156 53 311 0.0 1.0 0.05 0.17 0.17 95 1013.5
20260509160652 53 291 0.0 1.0 0.12 0.17 0.17 95 1013.3
20260509160147 53 280 0.0 0.0 0.12 0.16 0.16 95 1013.6
20260509155644 53 296 1.0 2.0 0.17 0.15 0.15 94 1013.8
20260509155140 53 310 0.0 0.0 0.19 0.14 0.14 94 1014.0
20260509154636 53 289 0.0 0.0 0.24 0.12 0.12 94 1014.3
20260509154133 53 284 0.0 0.0 0.19 0.10 0.10 93 1014.4
20260509153630 53 284 2.0 2.0 0.19 0.08 0.08 93 1014.5
20260509153127 54 275 1.0 2.0 0.12 0.06 0.06 92 1014.6
20260509152623 54 243 2.0 2.0 0.07 0.05 0.05 91 1014.6
20260509152120 54 247 0.0 2.0 0.00 0.04 0.04 90 1014.3
20260509151616 54 230 2.0 2.0 0.00 0.04 0.04 91 1014.3
20260509151114 54 227 2.0 3.0 0.05 0.04 0.04 91 1014.2
20260509150612 54 245 1.0 2.0 0.00 0.03 0.03 90 1014.4
20260509150110 54 236 1.0 2.0 0.07 0.03 0.03 90 1014.4
20260509145605 54 249 3.0 3.0 0.07 0.03 0.03 89 1014.4
20260509145101 54 238 2.0 3.0 0.05 0.02 0.02 87 1014.4
20260509144558 55 225 2.0 3.0 0.07 0.01 0.01 86 1014.5
20260509144055 55 247 1.0 2.0 0.07 0.01 0.01 84 1014.3
20260509143552 56 246 2.0 2.0 0.00 0.00 0.00 82 1014.1
20260509143050 56 236 3.0 3.0 0.00 0.00 0.00 80 1014.0
20260509142545 56 258 4.0 6.0 0.00 0.00 0.00 79 1014.1
20260509142041 56 268 0.0 1.0 0.00 0.00 0.00 80 1013.9
20260509141537 56 250 1.0 5.0 0.00 0.00 0.00 80 1013.9
20260509141034 56 229 3.0 3.0 0.00 0.00 0.00 80 1013.9
20260509140531 56 254 1.0 2.0 0.00 0.00 0.00 83 1013.8
20260509140029 56 245 2.0 2.0 0.00 0.00 0.00 84 1013.9
20260509135526 56 241 1.0 2.0 0.00 0.00 0.00 83 1013.8
20260509135023 56 233 2.0 2.0 0.00 0.00 0.00 82 1014.0
20260509134520 55 265 2.0 3.0 0.00 0.00 0.00 80 1013.8
20260509134018 55 257 0.0 0.0 0.00 0.00 0.00 80 1013.5
20260509133514 56 259 1.0 2.0 0.00 0.00 0.00 81 1013.7
20260509133013 55 243 2.0 2.0 0.00 0.00 0.00 81 1013.8
20260509132511 55 216 1.0 2.0 0.00 0.00 0.00 82 1013.5
20260509132008 55 258 0.0 0.0 0.00 0.00 0.00 85 1013.6
20260509131504 55 228 0.0 2.0 0.00 0.00 0.00 87 1013.5
20260509131001 55 248 0.0 1.0 0.00 0.00 0.00 86 1013.5
20260509130456 55 262 0.0 0.0 0.00 0.00 0.00 85 1013.4
20260509125954 54 273 0.0 0.0 0.00 0.00 0.00 85 1013.6
20260509125450 54 272 0.0 0.0 0.00 0.00 0.00 84 1013.4
20260509124946 54 277 1.0 2.0 0.00 0.00 0.00 84 1013.8
20260509124443 54 280 0.0 0.0 0.00 0.00 0.00 84 1013.5
20260509123940 54 279 0.0 0.0 0.00 0.00 0.00 85 1013.7
20260509123438 53 280 0.0 0.0 0.00 0.00 0.00 85 1013.5
20260509122934 53 275 1.0 1.0 0.00 0.00 0.00 86 1013.7
20260509122431 53 248 2.0 2.0 0.00 0.00 0.00 86 1013.6
20260509121927 53 235 3.0 3.0 0.00 0.00 0.00 86 1013.8
20260509121424 53 264 0.0 2.0 0.00 0.00 0.00 86 1013.1
20260509120923 53 296 1.0 2.0 0.00 0.00 0.00 86 1013.3
20260509120420 53 287 0.0 0.0 0.00 0.00 0.00 86 1013.4
20260509115918 52 278 1.0 3.0 0.00 0.00 0.00 86 1013.7
20260509115415 52 229 1.0 3.0 0.00 0.00 0.00 86 1013.3
20260509114912 52 221 1.0 2.0 0.00 0.00 0.00 87 1013.3
20260509114411 52 224 0.0 0.0 0.00 0.00 0.00 87 1013.0
20260509113910 52 225 0.0 0.0 0.00 0.00 0.00 87 1013.4
20260509113407 52 225 0.0 0.0 0.00 0.00 0.00 87 1013.1
20260509112904 52 225 0.0 0.0 0.00 0.00 0.00 87 1013.2
20260509112401 52 226 0.0 0.0 0.00 0.00 0.00 87 1013.0
20260509111858 51 233 0.0 0.0 0.00 0.00 0.00 87 1013.2
20260509111354 51 237 0.0 0.0 0.00 0.00 0.00 88 1013.1
20260509110853 51 237 0.0 0.0 0.00 0.00 0.00 88 1013.3
20260509110348 51 237 0.0 0.0 0.00 0.00 0.00 88 1013.0
20260509105847 51 263 0.0 0.0 0.00 0.00 0.00 88 1013.1
20260509105345 51 263 0.0 0.0 0.00 0.00 0.00 88 1013.2
20260509104841 51 264 0.0 0.0 0.00 0.00 0.00 87 1013.0
20260509104337 51 262 0.0 1.0 0.00 0.00 0.00 88 1013.1
20260509103835 51 263 0.0 0.0 0.00 0.00 0.00 88 1013.1
20260509103332 51 285 1.0 1.0 0.00 0.00 0.00 87 1013.0
20260509102831 51 270 0.0 0.0 0.00 0.00 0.00 87 1013.0
20260509102328 51 271 0.0 0.0 0.00 0.00 0.00 87 1012.7
20260509101824 51 273 0.0 0.0 0.00 0.00 0.00 86 1012.8
20260509101320 51 251 0.0 0.0 0.00 0.00 0.00 86 1013.1
20260509100818 51 252 1.0 1.0 0.00 0.00 0.00 86 1012.8
20260509100315 51 144 1.0 1.0 0.00 0.00 0.00 86 1012.6
20260509095812 51 287 1.0 2.0 0.00 0.00 0.00 85 1012.6
20260509095309 51 231 0.0 3.0 0.00 0.00 0.00 85 1012.5
20260509094806 51 160 2.0 2.0 0.00 0.00 0.00 84 1012.5
20260509094302 51 47 1.0 2.0 0.00 0.00 0.00 84 1012.9
20260509093800 51 265 0.0 0.0 0.00 0.00 0.00 84 1013.1
20260509093257 51 265 0.0 0.0 0.00 0.00 0.00 84 1013.0
20260509092756 51 234 0.0 0.0 0.00 0.00 0.00 83 1013.0
20260509092254 51 234 0.0 1.0 0.00 0.00 0.00 83 1012.7
20260509091751 51 232 0.0 0.0 0.00 0.00 0.00 82 1012.8
20260509091248 51 236 0.0 1.0 0.00 0.00 0.00 82 1012.9
20260509090745 51 204 1.0 2.0 0.00 0.00 0.00 82 1012.8
20260509090242 51 213 1.0 1.0 0.00 0.00 0.00 81 1013.0
20260509085740 51 216 1.0 3.0 0.00 0.00 0.00 81 1013.0
20260509085237 51 221 0.0 2.0 0.00 0.00 0.00 82 1013.1
20260509084733 51 234 0.0 0.0 0.00 0.00 0.00 81 1013.2
20260509084230 51 237 0.0 2.0 0.00 0.00 0.00 81 1013.2
20260509083728 51 154 1.0 2.0 0.00 0.00 0.00 82 1013.2
20260509083225 51 106 2.0 3.0 0.00 0.00 0.00 82 1013.2
20260509082721 51 222 0.0 1.0 0.00 0.00 0.00 82 1013.2
20260509082218 51 203 1.0 2.0 0.00 0.00 0.00 82 1013.3
20260509081714 51 220 0.0 0.0 0.00 0.00 0.00 82 1013.3
20260509081212 51 220 0.0 1.0 0.00 0.00 0.00 83 1013.6
20260509080710 51 220 0.0 1.0 0.00 0.00 0.00 83 1013.4
20260509080208 50 212 1.0 1.0 0.00 0.00 0.00 84 1013.5
20260509075706 50 224 0.0 2.0 0.00 0.00 0.00 85 1013.4
20260509075203 49 217 1.0 2.0 0.00 0.00 0.00 87 1013.6
20260509074700 49 236 0.0 1.0 0.00 0.00 0.00 87 1013.2
20260509074156 49 233 0.0 0.0 0.00 0.00 0.00 88 1013.4
20260509073653 49 233 0.0 0.0 0.00 0.00 0.00 88 1013.4
20260509073149 49 233 0.0 0.0 0.00 0.00 0.00 88 1013.6
20260509072646 49 180 0.0 0.0 0.00 0.00 0.00 88 1013.5
20260509072143 48 248 0.0 0.0 0.00 0.00 0.00 88 1013.5
20260509071640 49 248 0.0 0.0 0.00 0.00 0.00 88 1013.7
20260509071137 49 248 0.0 0.0 0.00 0.00 0.00 88 1013.7
20260509070634 49 249 0.0 0.0 0.00 0.00 0.00 87 1013.8
20260509070130 49 249 0.0 0.0 0.00 0.00 0.00 86 1013.6
20260509065626 50 249 0.0 0.0 0.00 0.00 0.00 85 1013.6
20260509065123 50 249 0.0 0.0 0.00 0.00 0.00 84 1013.5
20260509064620 50 249 0.0 0.0 0.00 0.00 0.00 83 1013.6
20260509064118 51 249 0.0 0.0 0.00 0.00 0.00 82 1013.6
20260509063614 51 249 0.0 0.0 0.00 0.00 0.00 82 1013.6
20260509063111 51 249 0.0 0.0 0.00 0.00 0.00 81 1013.5
20260509062608 52 249 0.0 0.0 0.00 0.00 0.00 80 1013.5
20260509062105 52 249 0.0 0.0 0.00 0.00 0.00 79 1013.8
20260509061602 52 255 0.0 0.0 0.00 0.00 0.00 79 1013.9
20260509061059 53 310 0.0 0.0 0.00 0.00 0.00 79 1013.9
20260509060557 53 191 0.0 1.0 0.00 0.00 0.00 79 1013.9
20260509060052 53 281 0.0 0.0 0.00 0.00 0.00 79 1013.8
20260509055548 53 279 0.0 0.0 0.00 0.00 0.00 78 1013.8
20260509055044 53 266 0.0 2.0 0.00 0.00 0.00 78 1013.7
20260509054541 53 216 0.0 2.0 0.00 0.00 0.00 79 1013.7
20260509054039 52 212 1.0 1.0 0.00 0.00 0.00 79 1013.9
20260509053537 52 214 0.0 0.0 0.00 0.00 0.00 80 1014.0
20260509053034 52 246 0.0 0.0 0.00 0.00 0.00 81 1014.0
20260509052532 52 272 0.0 0.0 0.00 0.00 0.00 79 1014.1
20260509052030 52 272 0.0 0.0 0.00 0.00 0.00 79 1014.1
20260509051527 52 272 0.0 0.0 0.00 0.00 0.00 80 1014.2
20260509051024 52 272 0.0 1.0 0.00 0.00 0.00 80 1014.3
20260509050521 52 228 0.0 0.0 0.00 0.00 0.00 80 1014.4
20260509050017 52 228 0.0 0.0 0.00 0.00 0.00 80 1014.2
20260509045514 52 228 0.0 0.0 0.00 0.00 0.00 79 1014.2
20260509045011 52 228 0.0 0.0 0.00 0.00 0.00 78 1014.1
20260509044509 52 228 0.0 0.0 0.00 0.00 0.00 78 1014.2
20260509044007 52 231 0.0 0.0 0.00 0.00 0.00 79 1014.3
20260509043502 52 232 0.0 1.0 0.00 0.00 0.00 78 1014.4
20260509042957 53 236 0.0 0.0 0.00 0.00 0.00 77 1014.3
20260509042455 53 248 0.0 1.0 0.00 0.00 0.00 76 1014.3
20260509041950 54 222 0.0 1.0 0.00 0.00 0.00 75 1014.3
20260509041448 54 135 1.0 1.0 0.00 0.00 0.00 75 1014.3
20260509040946 54 180 2.0 2.0 0.00 0.00 0.00 74 1014.4
20260509040444 54 216 0.0 1.0 0.00 0.00 0.00 74 1014.5
20260509035940 55 225 0.0 0.0 0.00 0.00 0.00 72 1014.4
20260509035437 55 225 0.0 1.0 0.00 0.00 0.00 71 1014.4
20260509034933 55 233 0.0 0.0 0.00 0.00 0.00 71 1014.6
20260509034431 55 208 0.0 1.0 0.00 0.00 0.00 71 1014.5
20260509033928 55 217 0.0 1.0 0.00 0.00 0.00 72 1014.9
20260509033425 55 235 0.0 1.0 0.00 0.00 0.00 71 1014.9
20260509032922 55 233 0.0 1.0 0.00 0.00 0.00 70 1014.6
20260509032419 56 74 1.0 2.0 0.00 0.00 0.00 69 1014.5
20260509031917 56 280 0.0 1.0 0.00 0.00 0.00 68 1014.7
20260509031414 56 224 0.0 1.0 0.00 0.00 0.00 67 1014.7
20260509030912 56 209 0.0 1.0 0.00 0.00 0.00 67 1014.7
20260509030409 56 205 1.0 1.0 0.00 0.00 0.00 66 1014.6
20260509025906 56 210 1.0 3.0 0.00 0.00 0.00 65 1014.7
20260509025402 56 235 0.0 1.0 0.00 0.00 0.00 67 1014.9
20260509024857 55 236 1.0 2.0 0.00 0.00 0.00 70 1014.6
20260509024353 54 220 1.0 2.0 0.00 0.00 0.00 75 1014.8
20260509023851 54 221 2.0 2.0 0.00 0.00 0.00 75 1014.6
20260509023348 54 219 0.0 0.0 0.00 0.00 0.00 74 1014.3
20260509022844 54 220 0.0 1.0 0.00 0.00 0.00 74 1014.0
20260509022342 54 222 0.0 1.0 0.00 0.00 0.00 74 1014.2
20260509021838 54 182 2.0 2.0 0.00 0.00 0.00 74 1014.2
20260509021335 55 205 1.0 2.0 0.00 0.00 0.00 73 1014.3
20260509020833 55 223 0.0 1.0 0.00 0.00 0.00 73 1014.5
20260509020331 55 231 0.0 0.0 0.00 0.00 0.00 72 1014.4
20260509015828 55 231 0.0 0.0 0.00 0.00 0.00 71 1014.5
20260509015326 55 234 0.0 0.0 0.00 0.00 0.00 70 1014.6
20260509014823 55 314 1.0 1.0 0.00 0.00 0.00 70 1014.2
20260509014320 55 346 1.0 1.0 0.00 0.00 0.00 72 1014.3
20260509013816 54 247 0.0 0.0 0.00 0.00 0.00 73 1014.4
20260509013313 55 247 0.0 0.0 0.00 0.00 0.00 72 1014.2
20260509012809 55 245 1.0 2.0 0.00 0.00 0.00 71 1014.2
20260509012307 55 262 0.0 0.0 0.00 0.00 0.00 71 1014.3
20260509011803 55 262 0.0 1.0 0.00 0.00 0.00 70 1014.2
20260509011301 55 273 0.0 0.0 0.00 0.00 0.00 70 1014.1
20260509010758 55 282 0.0 0.0 0.00 0.00 0.00 70 1014.3
20260509010255 55 282 0.0 0.0 0.00 0.00 0.00 69 1014.1